Location: ?????????
(55.6553°N, 38.9075°E)
Time: 17:24:47
(UTC+00:00)

USA 116 - Pass Details

Date: 18 October 2019
Orbit: 405 x 834 km, 97.9° (Epoch: 18 November)

Event Time Altitude Azimuth Distance (km) Brightness Sun altitude
Rises 02:35:21 0° 163° (SSE) 2,689 7.4 -12.6°
Reaches altitude 10° 02:37:33 10° 164° (SSE) 1,738 6.5 -12.3°
Maximum altitude 02:41:16 88° 257° (WSW) 482 3.4 -11.8°
Drops below altitude 10° 02:44:37 10° 344° (NNW) 1,579 5.9 -11.3°
Sets 02:46:33 0° 345° (NNW) 2,417 6.8 -11.1°
